Wind_Speed
24 23 22 22 22 21 19 19 18 17 16 15 14 13 13 13 14 15 18 14 12 14 14 13 13 12 12 6 4 4 4 2 4 6 3 10 3 7 4 8 6 8 4 4 20
24 24 23 21 21 20 19 18 18 16 15 15 13 13 11 11 13 17 13 14 14 16 15 14 14 13 6 6 3 4 4 8 3 5 4 9 4 11 6 7 5 7 7 7 23
24 23 23 22 20 19 19 18 17 16 15 14 14 13 12 11 10 10 14 17 13 16 14 14 15 12 4 4 3 4 5 5 2 2 5 6 1 6 8 3 11 14 13 14 25
25 24 22 21 20 19 19 19 17 16 16 14 13 13 12 15 6 12 16 17 15 16 16 15 16 9 4 5 4 3 2 5 6 4 5 6 4 4 11 7 6 15 12 16 24
24 25 22 21 20 19 19 17 18 16 15 14 14 13 14 12 5 12 17 17 17 17 17 15 18 7 6 5 6 3 3 5 5 4 3 4 4 5 12 14 7 7 17 18 22
24 25 23 21 20 19 18 17 16 15 14 13 14 15 14 8 8 11 15 16 17 17 17 13 11 6 6 5 4 5 5 4 3 3 2 3 2 2 3 15 14 12 13 19 22
24 25 22 21 20 19 17 17 16 15 13 12 13 14 10 9 11 11 15 15 15 16 17 13 11 6 9 5 6 7 3 2 2 2 2 3 4 7 10 5 10 18 17 20 21
24 24 22 21 19 18 18 14 14 13 12 11 11 14 5 10 12 12 15 15 15 14 15 12 10 8 4 11 6 5 5 1 1 4 1 3 7 3 2 7 12 14 17 22 24
23 22 21 21 20 18 17 16 14 12 12 10 10 7 3 12 12 14 14 14 15 13 13 11 10 5 6 5 4 6 3 3 5 7 2 2 6 5 4 2 8 6 14 19 23
21 21 20 20 19 18 16 14 12 11 11 10 7 5 7 9 15 15 14 15 11 15 11 8 3 4 3 4 6 5 3 3 3 2 1 2 9 7 15 13 17 18 19 22 24
19 21 20 20 19 18 18 16 10 4 13 5 5 2 9 14 16 15 16 16 16 10 4 3 4 7 10 6 3 6 4 4 0 1 2 5 7 12 23 17 24 25 25 27 29
16 16 18 18 18 18 19 12 10 7 6 6 4 5 13 15 8 17 20 7 7 4 5 5 4 6 6 4 4 4 3 1 1 1 1 5 11 11 18 15 24 26 24 19 19
16 16 17 15 16 17 20 13 14 11 4 7 6 6 10 12 5 20 19 8 5 6 5 6 2 10 6 4 5 2 4 3 3 2 3 5 8 6 5 6 11 13 17 21 19
20 19 18 17 15 17 18 18 13 9 3 4 6 7 10 8 2 17 18 8 2 7 8 3 3 7 5 4 5 4 5 5 4 3 3 2 5 6 5 10 9 18 15 14 10
18 21 20 22 8 19 16 17 15 8 3 4 5 8 12 6 13 8 13 4 8 7 6 6 7 7 4 5 5 4 4 5 3 4 3 4 1 7 4 7 8 11 7 10 11
8 17 23 20 15 20 17 18 14 4 7 5 5 7 7 3 2 7 6 3 7 5 5 2 1 2 5 3 2 8 6 7 5 3 1 5 5 5 3 2 2 7 7 8 8
12 12 15 18 17 22 19 19 3 5 1 6 5 6 4 5 4 3 7 5 7 6 4 1 1 1 3 6 4 4 6 2 3 2 5 1 2 8 6 5 3 8 5 7 7
10 9 12 10 18 16 20 3 4 6 6 3 4 8 6 7 1 4 7 7 3 5 4 6 3 7 4 6 8 5 6 5 7 4 3 2 5 5 5 7 1 4 6 8 11
11 13 12 17 12 19 16 9 9 5 7 8 6 6 4 4 6 4 7 7 8 9 7 5 4 1 1 3 6 5 3 5 7 3 3 3 6 10 5 6 9 12 12 15 17
6 9 13 13 10 14 4 11 5 2 2 4 6 6 7 7 5 7 9 5 6 10 2 8 4 1 1 3 3 4 7 3 3 2 3 4 4 5 3 6 4 8 13 16 21
4 4 7 17 14 3 3 8 3 6 2 5 5 6 6 8 7 6 10 2 6 8 5 6 4 1 3 6 8 3 3 4 4 4 5 1 5 6 5 8 9 10 15 8 11
3 1 9 18 4 4 6 6 4 3 5 2 2 4 7 8 6 6 10 6 12 14 10 6 5 4 5 1 1 2 6 6 5 4 2 3 5 4 9 13 17 11 14 12 6
2 1 7 16 4 4 5 4 4 3 3 4 2 1 2 6 5 4 5 1 9 8 9 8 3 3 3 3 2 4 4 4 5 3 7 5 5 2 6 7 7 9 8 8 5
4 2 2 12 2 3 4 6 6 8 2 1 3 2 4 3 4 6 4 3 3 4 7 8 4 7 11 4 6 6 6 6 6 3 5 8 5 5 9 5 5 10 12 8 4
5 3 3 4 6 2 4 7 7 6 7 6 2 5 4 3 3 4 3 3 5 2 4 3 4 3 3 5 4 3 5 8 10 13 8 8 10 7 8 5 7 11 9 5 5
6 3 2 1 2 6 3 7 13 5 8 7 6 7 13 7 5 4 6 2 3 2 2 1 3 3 1 2 2 2 7 7 3 1 5 3 8 8 19 12 12 11 6 6 4
16 6 2 1 2 6 7 3 6 8 4 4 9 6 7 5 16 16 13 11 5 4 3 4 5 3 3 5 5 5 12 9 5 6 6 8 5 5 3 1 1 3 2 5 6
Wind_Direction
194 191 192 193 190 187 187 188 196 197 196 193 196 200 200 199 195 194 202 195 193 184 188 180 177 177 175 170 163 138 69 150 211 151 221 158 142 172 191 157 177 196 253 251 181
197 192 192 195 191 189 189 187 191 196 196 195 195 193 197 196 194 198 195 187 184 184 182 178 175 169 161 174 163 102 111 205 213 181 178 173 168 159 168 161 201 200 217 195 184
196 196 194 189 192 190 189 186 192 189 195 190 191 190 187 184 187 210 193 184 176 179 175 172 170 161 144 163 173 146 165 190 197 120 154 156 200 186 153 242 213 212 207 186 186
195 195 193 191 189 190 190 186 190 189 190 189 189 186 180 173 175 186 185 184 181 177 167 166 163 151 132 154 156 112 180 167 163 141 146 160 174 215 205 216 236 232 225 202 192
197 191 191 189 189 191 192 188 190 188 192 187 187 183 170 188 223 182 183 182 180 176 174 168 167 151 153 162 131 125 171 144 150 159 169 173 196 235 245 227 208 213 208 212 209
194 191 189 190 188 189 188 190 189 189 193 188 188 180 177 189 182 175 182 178 180 175 180 177 182 174 125 149 143 167 133 140 168 176 163 164 229 175 291 230 223 224 212 214 217
192 188 188 191 188 190 187 191 188 186 189 185 186 181 194 190 178 169 174 175 178 176 177 176 175 163 143 116 129 115 86 24 195 228 164 162 269 231 247 249 224 229 226 226 226
188 187 186 189 188 187 187 188 189 187 183 181 183 177 207 187 178 172 168 171 175 176 175 168 166 141 108 125 48 77 53 92 271 161 227 126 265 265 262 242 243 241 230 226 229
184 188 188 187 189 186 183 188 184 182 177 174 177 174 208 181 170 174 166 173 168 164 165 165 158 112 115 90 40 12 171 208 309 193 135 125 259 265 163 49 303 261 244 239 239
182 187 188 185 185 185 182 178 172 174 168 162 178 183 202 189 175 168 164 161 157 151 137 151 123 83 56 100 196 184 186 222 230 213 173 143 265 279 276 285 281 280 260 250 250
183 185 187 185 185 183 176 158 144 157 175 180 207 200 167 161 168 165 162 159 149 147 133 97 108 186 196 172 135 136 144 157 195 350 196 250 263 278 282 285 278 273 269 267 262
183 182 186 186 183 183 178 168 170 153 171 209 191 185 166 155 145 167 163 150 141 126 123 52 215 200 125 151 116 126 122 196 16 83 168 343 283 262 272 263 269 274 276 275 281
188 186 181 186 183 184 185 183 172 161 126 190 175 168 170 171 151 171 173 148 115 133 162 150 224 143 134 140 148 177 163 179 171 46 45 344 297 321 297 277 272 264 278 284 290
191 193 180 176 191 189 187 186 172 158 88 197 202 189 181 165 99 169 169 159 139 162 147 183 138 145 139 156 135 175 193 134 139 95 235 16 283 308 309 303 291 293 300 300 311
168 188 185 185 195 185 183 177 167 160 162 178 158 170 163 163 136 170 165 162 156 145 118 225 165 141 132 183 164 182 104 118 90 97 63 321 60 273 330 290 302 337 48 68 65
183 172 187 186 195 189 174 165 151 74 233 163 136 159 119 116 73 118 161 161 121 99 52 116 80 143 169 91 115 150 82 54 55 82 330 234 162 285 224 212 354 11 31 36 44
210 184 181 178 179 188 166 151 92 165 204 183 173 160 115 147 123 137 163 179 146 115 156 95 89 353 143 84 41 84 83 11 348 7 221 47 111 251 275 273 237 308 338 17 18
207 199 197 175 157 183 163 93 171 190 190 133 120 119 161 147 134 139 134 185 255 97 124 150 219 169 195 169 168 183 155 158 198 199 255 92 233 245 204 317 239 33 45 49 47
236 189 213 205 184 165 165 192 209 192 150 136 78 125 168 200 134 150 186 189 193 182 144 141 234 74 93 133 135 185 178 156 104 24 58 225 289 306 86 56 84 75 65 57 64
235 215 203 215 213 194 186 201 230 206 122 172 145 161 167 180 142 165 171 189 198 188 180 195 123 31 123 113 41 150 160 81 10 143 255 284 270 226 111 98 90 51 64 85 87
202 184 219 173 203 198 206 199 201 232 201 182 149 145 174 174 161 193 192 255 195 181 151 142 109 188 123 206 163 136 169 68 123 146 172 203 256 225 140 146 100 52 46 63 77
197 208 189 179 165 150 216 171 193 219 205 212 110 118 160 160 149 188 196 222 186 146 170 189 126 157 196 308 259 153 175 150 149 211 238 152 265 21 135 116 95 73 58 36 66
220 235 198 186 183 187 170 199 176 175 229 157 151 135 123 156 141 175 177 201 165 155 160 179 193 84 21 13 358 197 194 141 110 85 202 143 255 336 120 124 80 76 36 27 357
182 188 155 210 224 177 156 186 150 187 242 32 144 59 120 114 34 162 137 42 155 131 121 137 121 181 206 179 143 184 185 174 156 167 195 218 149 208 233 271 338 24 14 16 61
214 237 217 184 220 201 181 180 159 179 183 195 341 167 106 148 149 145 116 120 52 38 71 105 131 117 78 113 111 149 167 175 196 218 187 232 197 219 224 275 321 356 19 78 20
185 200 199 277 173 161 178 193 188 173 162 185 179 204 185 202 182 175 130 130 138 25 93 21 110 96 89 96 63 193 202 194 207 190 281 180 261 217 264 290 330 354 75 73 48
203 184 198 113 147 188 206 202 199 150 197 193 183 138 185 161 172 181 204 180 160 172 113 104 123 117 185 137 83 285 225 204 179 186 155 226 217 164 167 227 164 169 88 47 24
Height
1466 1468 1472 1476 1477 1481 1483 1485 1488 1491 1494 1495 1498 1501 1502 1505 1505 1505 1507 1509 1509 1512 1515 1516 1519 1520 1522 1525 1526 1526 1540 1549 1540 1543 1535 1534 1536 1537 1538 1539 1540 1540 1541 1541 1543
1464 1467 1471 1474 1477 1479 1482 1485 1488 1489 1492 1494 1496 1499 1501 1503 1504 1504 1506 1507 1508 1512 1514 1515 1517 1520 1523 1525 1526 1526 1541 1540 1532 1531 1532 1533 1534 1535 1538 1538 1539 1539 1540 1541 1542
1461 1465 1470 1472 1475 1477 1480 1482 1485 1489 1491 1494 1496 1499 1500 1501 1503 1501 1502 1506 1507 1511 1513 1514 1517 1520 1523 1525 1526 1527 1534 1531 1531 1530 1531 1532 1535 1536 1536 1539 1535 1535 1538 1539 1541
1458 1463 1467 1471 1474 1478 1480 1482 1484 1487 1490 1491 1495 1496 1497 1499 1503 1497 1502 1504 1506 1510 1511 1514 1517 1520 1522 1525 1526 1529 1528 1529 1530 1530 1532 1533 1534 1534 1535 1533 1533 1534 1536 1538 1540
1456 1461 1465 1470 1473 1476 1479 1480 1484 1486 1489 1491 1492 1493 1495 1499 1499 1498 1500 1503 1506 1508 1511 1513 1516 1519 1523 1523 1526 1527 1528 1529 1530 1531 1532 1533 1533 1536 1532 1533 1533 1533 1534 1535 1537
1454 1458 1462 1465 1470 1474 1476 1481 1482 1485 1487 1489 1491 1492 1495 1496 1495 1496 1499 1501 1505 1506 1511 1513 1516 1519 1520 1522 1526 1526 1528 1530 1530 1532 1533 1533 1534 1533 1531 1530 1531 1532 1533 1533 1535
1452 1457 1461 1464 1468 1472 1473 1480 1481 1485 1487 1488 1489 1490 1493 1492 1495 1496 1498 1501 1505 1506 1510 1513 1516 1518 1520 1523 1525 1527 1530 1531 1530 1533 1533 1533 1535 1531 1528 1530 1529 1530 1531 1532 1533
1450 1455 1459 1463 1465 1470 1473 1474 1479 1483 1485 1486 1488 1491 1492 1493 1494 1495 1496 1500 1504 1507 1510 1514 1516 1517 1519 1524 1526 1530 1536 1542 1531 1532 1534 1535 1539 1527 1525 1527 1529 1529 1529 1529 1530
1450 1453 1458 1462 1466 1469 1471 1477 1479 1480 1482 1483 1487 1490 1491 1490 1490 1495 1496 1500 1503 1507 1510 1513 1516 1518 1521 1529 1539 1540 1545 1543 1534 1531 1534 1534 1535 1526 1524 1526 1528 1527 1527 1527 1527
1448 1453 1457 1460 1464 1467 1470 1475 1476 1480 1482 1485 1488 1492 1488 1489 1491 1493 1497 1500 1505 1505 1511 1513 1517 1521 1527 1534 1547 1541 1541 1539 1536 1532 1534 1536 1534 1526 1524 1525 1525 1524 1523 1523 1523
1447 1450 1455 1459 1462 1465 1470 1474 1480 1481 1478 1481 1484 1483 1483 1486 1491 1492 1497 1500 1504 1505 1512 1513 1521 1525 1524 1525 1526 1531 1535 1535 1533 1532 1534 1536 1536 1527 1520 1520 1519 1518 1517 1516 1516
1447 1449 1452 1456 1459 1462 1466 1467 1471 1475 1481 1481 1480 1483 1485 1485 1490 1493 1497 1499 1503 1510 1511 1519 1523 1517 1520 1524 1526 1528 1533 1535 1533 1533 1536 1536 1534 1524 1518 1512 1513 1511 1511 1510 1509
1446 1449 1451 1455 1458 1461 1464 1467 1470 1473 1476 1478 1479 1481 1484 1486 1488 1491 1494 1498 1502 1510 1511 1516 1514 1514 1518 1526 1529 1530 1536 1534 1535 1536 1538 1539 1535 1526 1513 1509 1509 1507 1508 1507 1506
1444 1448 1451 1455 1461 1461 1463 1466 1468 1472 1481 1478 1479 1481 1484 1485 1488 1489 1492 1498 1502 1509 1512 1512 1513 1515 1518 1522 1526 1534 1528 1530 1534 1542 1553 1544 1556 1532 1520 1515 1507 1505 1505 1504 1504
1441 1446 1448 1452 1454 1458 1462 1464 1469 1473 1498 1473 1475 1476 1479 1484 1487 1490 1492 1498 1501 1503 1508 1515 1514 1516 1519 1518 1521 1526 1527 1532 1537 1547 1547 1550 1556 1533 1525 1516 1510 1506 1503 1504 1504
1439 1441 1445 1449 1452 1456 1460 1465 1470 1483 1487 1474 1471 1474 1479 1482 1485 1487 1492 1498 1497 1502 1507 1512 1512 1513 1515 1519 1519 1524 1531 1540 1550 1554 1562 1551 1551 1540 1526 1515 1510 1508 1507 1506 1505
1439 1439 1444 1447 1451 1455 1458 1462 1477 1489 1462 1470 1470 1472 1475 1483 1487 1487 1492 1497 1497 1512 1515 1514 1515 1513 1515 1521 1521 1524 1535 1557 1562 1571 1562 1553 1555 1537 1516 1514 1512 1510 1509 1508 1507
1432 1436 1440 1441 1447 1451 1454 1463 1476 1460 1461 1461 1464 1470 1475 1478 1484 1488 1491 1494 1492 1496 1513 1517 1524 1514 1512 1513 1521 1527 1528 1551 1562 1570 1556 1552 1549 1525 1510 1511 1510 1510 1509 1510 1508
1434 1437 1441 1444 1444 1448 1453 1460 1450 1453 1450 1457 1464 1471 1477 1475 1478 1485 1489 1489 1487 1488 1497 1513 1512 1509 1511 1510 1512 1526 1534 1533 1556 1599 1573 1546 1535 1514 1510 1513 1511 1510 1510 1510 1510
1434 1436 1439 1441 1442 1449 1450 1450 1451 1449 1449 1450 1456 1462 1472 1474 1477 1481 1487 1478 1481 1482 1484 1496 1510 1513 1511 1512 1515 1516 1521 1540 1554 1566 1571 1548 1539 1529 1512 1518 1515 1514 1512 1513 1513
1435 1438 1438 1440 1445 1444 1444 1441 1447 1447 1447 1449 1450 1458 1463 1469 1472 1476 1475 1474 1474 1480 1483 1490 1498 1516 1513 1513 1515 1520 1522 1528 1531 1544 1555 1566 1538 1516 1515 1516 1516 1516 1513 1513 1514
1436 1439 1436 1438 1442 1445 1443 1445 1443 1443 1447 1446 1446 1450 1456 1462 1469 1473 1472 1469 1468 1471 1483 1485 1497 1520 1511 1508 1509 1508 1513 1517 1533 1541 1550 1546 1534 1512 1513 1512 1514 1517 1517 1515 1515
1435 1436 1436 1437 1436 1440 1440 1440 1442 1444 1445 1445 1447 1446 1449 1456 1464 1466 1467 1467 1468 1470 1474 1481 1499 1524 1514 1513 1511 1510 1511 1512 1519 1529 1534 1543 1532 1514 1514 1514 1516 1517 1517 1516 1515
1437 1437 1437 1437 1434 1434 1435 1438 1440 1444 1444 1443 1445 1447 1449 1455 1457 1464 1466 1468 1468 1471 1471 1474 1490 1490 1492 1494 1501 1509 1509 1510 1512 1532 1516 1520 1518 1514 1514 1512 1513 1512 1513 1513 1513
1435 1432 1432 1435 1432 1432 1432 1435 1438 1441 1442 1445 1448 1447 1448 1455 1461 1461 1465 1468 1470 1471 1472 1476 1492 1489 1494 1494 1497 1501 1506 1510 1510 1503 1514 1503 1513 1508 1507 1509 1507 1509 1509 1510 1511
1431 1430 1430 1431 1429 1431 1433 1434 1434 1436 1437 1441 1444 1446 1450 1457 1456 1460 1461 1464 1467 1472 1474 1477 1494 1492 1499 1496 1499 1500 1503 1506 1510 1511 1513 1514 1512 1505 1504 1506 1505 1507 1508 1509 1509
1426 1428 1431 1430 1429 1431 1428 1431 1431 1433 1436 1436 1439 1445 1450 1452 1451 1455 1459 1463 1463 1471 1475 1479 1490 1498 1499 1502 1506 1506 1495 1500 1503 1504 1504 1506 1499 1500 1503 1506 1507 1507 1507 1507 1508